Time,TemperatureF,DewpointF,PressureIn,WindDirection,WindDirectionDegrees,WindSpeedMPH,WindSpeedGustMPH,Humidity,HourlyPrecipIn,Conditions,Clouds,dailyrainin,SoftwareType,DateUTC
2013-04-03 00:00:00,31.5,19.6,30.09,WNW,284,6.0,8.0,61,0.00,,,0.00,Wunderground v.1.15,2013-04-03 04:00:00,
2013-04-03 00:03:00,31.5,19.6,30.09,WSW,257,6.0,8.0,61,0.00,,,0.00,Wunderground v.1.15,2013-04-03 04:03:00,
2013-04-03 00:04:00,31.5,19.6,30.09,NW,306,8.0,8.0,61,0.00,,,0.00,Wunderground v.1.15,2013-04-03 04:04:00,
2013-04-03 00:09:00,31.5,19.6,30.09,West,260,10.0,10.0,61,0.00,,,0.00,Wunderground v.1.15,2013-04-03 04:09:00,
2013-04-03 00:15:00,31.6,19.3,30.09,North,355,8.0,16.0,60,0.00,,,0.00,Wunderground v.1.15,2013-04-03 04:15:00,
2013-04-03 00:20:00,31.6,19.3,30.09,West,279,4.0,8.0,60,0.00,,,0.00,Wunderground v.1.15,2013-04-03 04:20:00,
2013-04-03 00:27:00,31.6,19.3,30.09,WSW,251,8.0,14.0,60,0.00,,,0.00,Wunderground v.1.15,2013-04-03 04:27:00,
2013-04-03 00:32:00,31.6,19.3,30.09,West,259,7.0,11.0,60,0.00,,,0.00,Wunderground v.1.15,2013-04-03 04:32:00,
2013-04-03 00:37:00,31.6,19.7,30.09,WNW,286,7.0,12.0,61,0.00,,,0.00,Wunderground v.1.15,2013-04-03 04:37:00,
2013-04-03 00:43:00,31.5,19.6,30.09,WNW,286,3.0,10.0,61,0.00,,,0.00,Wunderground v.1.15,2013-04-03 04:43:00,
2013-04-03 00:49:00,31.5,19.6,30.09,North,355,5.0,22.0,61,0.00,,,0.00,Wunderground v.1.15,2013-04-03 04:49:00,
2013-04-03 00:54:00,31.4,20.2,30.09,WNW,290,8.0,15.0,63,0.00,,,0.00,Wunderground v.1.15,2013-04-03 04:54:00,
2013-04-03 00:59:00,31.4,19.9,30.09,WNW,288,9.0,15.0,62,0.00,,,0.00,Wunderground v.1.15,2013-04-03 04:59:00,
2013-04-03 01:04:00,31.4,20.2,30.09,WNW,300,11.0,13.0,63,0.00,,,0.00,Wunderground v.1.15,2013-04-03 05:04:00,
2013-04-03 01:10:00,31.3,20.2,30.09,WNW,298,10.0,10.0,63,0.00,,,0.00,Wunderground v.1.15,2013-04-03 05:10:00,
2013-04-03 01:15:00,31.4,18.3,30.09,NNW,340,15.0,15.0,58,0.00,,,0.00,Wunderground v.1.15,2013-04-03 05:15:00,
2013-04-03 01:22:00,31.5,19.2,30.09,West,278,10.0,11.0,60,0.00,,,0.00,Wunderground v.1.15,2013-04-03 05:22:00,
2013-04-03 01:27:00,31.4,19.5,30.09,NW,324,12.0,14.0,61,0.00,,,0.00,Wunderground v.1.15,2013-04-03 05:27:00,
2013-04-03 01:33:00,31.3,19.4,30.10,NNE,15,11.0,12.0,61,0.00,,,0.00,Wunderground v.1.15,2013-04-03 05:33:00,
2013-04-03 01:38:00,31.4,18.7,30.10,WNW,288,5.0,12.0,59,0.00,,,0.00,Wunderground v.1.15,2013-04-03 05:38:00,
2013-04-03 01:43:00,31.4,19.5,30.09,West,274,4.0,9.0,61,0.00,,,0.00,Wunderground v.1.15,2013-04-03 05:43:00,
2013-04-03 01:49:00,31.4,20.2,30.10,West,269,9.0,9.0,63,0.00,,,0.00,Wunderground v.1.15,2013-04-03 05:49:00,
2013-04-03 01:54:00,31.3,19.0,30.10,West,265,5.0,10.0,60,0.00,,,0.00,Wunderground v.1.15,2013-04-03 05:54:00,
2013-04-03 01:59:00,31.3,18.6,30.10,West,265,9.0,17.0,59,0.00,,,0.00,Wunderground v.1.15,2013-04-03 05:59:00,
2013-04-03 02:04:00,31.2,18.9,30.10,NW,308,8.0,12.0,60,0.00,,,0.00,Wunderground v.1.15,2013-04-03 06:04:00,
2013-04-03 02:09:00,31.1,18.4,30.10,WNW,296,6.0,22.0,59,0.00,,,0.00,Wunderground v.1.15,2013-04-03 06:09:00,
2013-04-03 02:14:00,31.1,17.6,30.10,West,281,13.0,23.0,57,0.00,,,0.00,Wunderground v.1.15,2013-04-03 06:14:00,
2013-04-03 02:19:00,31.1,18.0,30.10,WNW,301,7.0,23.0,58,0.00,,,0.00,Wunderground v.1.15,2013-04-03 06:19:00,
2013-04-03 02:24:00,31.0,17.5,30.10,WNW,286,11.0,18.0,57,0.00,,,0.00,Wunderground v.1.15,2013-04-03 06:24:00,
2013-04-03 02:29:00,31.0,17.5,30.10,North,355,7.0,18.0,57,0.00,,,0.00,Wunderground v.1.15,2013-04-03 06:29:00,
2013-04-03 02:34:00,31.0,17.5,30.09,WNW,287,5.0,13.0,57,0.00,,,0.00,Wunderground v.1.15,2013-04-03 06:34:00,
2013-04-03 02:39:00,31.0,18.3,30.10,WNW,290,10.0,17.0,59,0.00,,,0.00,Wunderground v.1.15,2013-04-03 06:39:00,
2013-04-03 02:44:00,31.0,18.3,30.09,West,278,6.0,15.0,59,0.00,,,0.00,Wunderground v.1.15,2013-04-03 06:44:00,
2013-04-03 02:49:00,31.0,19.1,30.09,WNW,286,9.0,15.0,61,0.00,,,0.00,Wunderground v.1.15,2013-04-03 06:49:00,
2013-04-03 02:54:00,31.0,19.1,30.09,West,281,2.0,7.0,61,0.00,,,0.00,Wunderground v.1.15,2013-04-03 06:54:00,
2013-04-03 02:59:00,30.9,18.6,30.09,West,265,6.0,13.0,60,0.00,,,0.00,Wunderground v.1.15,2013-04-03 06:59:00,
2013-04-03 03:04:00,30.8,18.5,30.09,NW,322,11.0,21.0,60,0.00,,,0.00,Wunderground v.1.15,2013-04-03 07:04:00,
2013-04-03 03:09:00,30.7,18.4,30.09,WNW,286,6.0,21.0,60,0.00,,,0.00,Wunderground v.1.15,2013-04-03 07:09:00,
2013-04-03 03:14:00,30.7,18.4,30.09,WSW,242,8.0,13.0,60,0.00,,,0.00,Wunderground v.1.15,2013-04-03 07:14:00,
2013-04-03 03:19:00,30.7,18.8,30.09,West,269,3.0,18.0,61,0.00,,,0.00,Wunderground v.1.15,2013-04-03 07:19:00,
2013-04-03 03:24:00,30.6,19.1,30.09,WNW,302,12.0,15.0,62,0.00,,,0.00,Wunderground v.1.15,2013-04-03 07:24:00,
2013-04-03 03:29:00,30.6,19.1,30.09,WNW,286,10.0,15.0,62,0.00,,,0.00,Wunderground v.1.15,2013-04-03 07:29:00,
2013-04-03 03:34:00,30.6,19.1,30.09,West,273,7.0,13.0,62,0.00,,,0.00,Wunderground v.1.15,2013-04-03 07:34:00,
2013-04-03 03:39:00,30.6,19.1,30.09,West,268,5.0,13.0,62,0.00,,,0.00,Wunderground v.1.15,2013-04-03 07:39:00,
2013-04-03 03:44:00,30.6,18.7,30.09,SW,231,5.0,17.0,61,0.00,,,0.00,Wunderground v.1.15,2013-04-03 07:44:00,
2013-04-03 03:49:00,30.6,19.1,30.09,NW,308,5.0,17.0,62,0.00,,,0.00,Wunderground v.1.15,2013-04-03 07:49:00,
2013-04-03 03:54:00,30.6,18.7,30.09,West,268,4.0,15.0,61,0.00,,,0.00,Wunderground v.1.15,2013-04-03 07:54:00,
2013-04-03 03:59:00,30.5,19.0,30.09,West,271,4.0,15.0,62,0.00,,,0.00,Wunderground v.1.15,2013-04-03 07:59:00,
2013-04-03 04:05:00,30.3,18.8,30.09,West,267,4.0,9.0,62,0.00,,,0.00,Wunderground v.1.15,2013-04-03 08:05:00,
2013-04-03 04:10:00,30.2,18.4,30.09,WNW,292,11.0,11.0,61,0.00,,,0.00,Wunderground v.1.15,2013-04-03 08:10:00,
2013-04-03 04:15:00,30.2,18.7,30.09,WNW,290,5.0,14.0,62,0.00,,,0.00,Wunderground v.1.15,2013-04-03 08:15:00,
2013-04-03 04:20:00,30.2,18.7,30.09,WSW,258,4.0,7.0,62,0.00,,,0.00,Wunderground v.1.15,2013-04-03 08:20:00,
2013-04-03 04:25:00,30.1,19.0,30.10,NNW,338,14.0,14.0,63,0.00,,,0.00,Wunderground v.1.15,2013-04-03 08:25:00,
2013-04-03 04:30:00,30.2,19.1,30.10,NW,321,8.0,8.0,63,0.00,,,0.00,Wunderground v.1.15,2013-04-03 08:30:00,
2013-04-03 04:35:00,30.2,19.1,30.10,NW,325,5.0,19.0,63,0.00,,,0.00,Wunderground v.1.15,2013-04-03 08:35:00,
2013-04-03 04:40:00,30.2,19.5,30.10,West,260,4.0,6.0,64,0.00,,,0.00,Wunderground v.1.15,2013-04-03 08:40:00,
2013-04-03 04:45:00,30.1,19.4,30.10,WNW,283,4.0,12.0,64,0.00,,,0.00,Wunderground v.1.15,2013-04-03 08:45:00,
2013-04-03 04:50:00,30.0,19.3,30.10,WSW,246,5.0,8.0,64,0.00,,,0.00,Wunderground v.1.15,2013-04-03 08:50:00,
2013-04-03 04:55:00,29.9,19.2,30.11,West,273,6.0,12.0,64,0.00,,,0.00,Wunderground v.1.15,2013-04-03 08:55:00,
2013-04-03 05:00:00,29.9,19.2,30.11,West,274,5.0,6.0,64,0.00,,,0.00,Wunderground v.1.15,2013-04-03 09:00:00,
2013-04-03 05:05:00,29.8,19.1,30.11,West,262,6.0,9.0,64,0.00,,,0.00,Wunderground v.1.15,2013-04-03 09:05:00,
2013-04-03 05:10:00,29.7,19.0,30.11,West,278,5.0,7.0,64,0.00,,,0.00,Wunderground v.1.15,2013-04-03 09:10:00,
2013-04-03 05:16:00,29.7,19.4,30.11,West,273,4.0,10.0,65,0.00,,,0.00,Wunderground v.1.15,2013-04-03 09:16:00,
2013-04-03 05:21:00,29.7,19.4,30.11,West,273,3.0,6.0,65,0.00,,,0.00,Wunderground v.1.15,2013-04-03 09:21:00,
2013-04-03 05:26:00,29.6,19.3,30.11,WNW,297,10.0,12.0,65,0.00,,,0.00,Wunderground v.1.15,2013-04-03 09:26:00,
2013-04-03 05:31:00,29.6,19.3,30.12,NW,313,6.0,8.0,65,0.00,,,0.00,Wunderground v.1.15,2013-04-03 09:31:00,
2013-04-03 05:36:00,29.5,19.2,30.12,West,277,8.0,11.0,65,0.00,,,0.00,Wunderground v.1.15,2013-04-03 09:36:00,
2013-04-03 05:41:00,29.5,19.2,30.12,SSW,213,6.0,8.0,65,0.00,,,0.00,Wunderground v.1.15,2013-04-03 09:41:00,
2013-04-03 05:46:00,29.4,19.1,30.12,West,267,7.0,12.0,65,0.00,,,0.00,Wunderground v.1.15,2013-04-03 09:46:00,
2013-04-03 05:51:00,29.4,19.4,30.12,WSW,252,6.0,11.0,66,0.00,,,0.00,Wunderground v.1.15,2013-04-03 09:51:00,
2013-04-03 05:56:00,29.4,19.4,30.12,West,275,3.0,15.0,66,0.00,,,0.00,Wunderground v.1.15,2013-04-03 09:56:00,
2013-04-03 06:01:00,29.4,19.4,30.13,WSW,248,8.0,11.0,66,0.00,,,0.00,Wunderground v.1.15,2013-04-03 10:01:00,
2013-04-03 06:06:00,29.4,19.4,30.13,West,280,7.0,11.0,66,0.00,,,0.00,Wunderground v.1.15,2013-04-03 10:06:00,
2013-04-03 06:11:00,29.3,19.7,30.13,WNW,303,4.0,7.0,67,0.00,,,0.00,Wunderground v.1.15,2013-04-03 10:11:00,
2013-04-03 06:16:00,29.3,19.3,30.13,West,268,9.0,12.0,66,0.00,,,0.00,Wunderground v.1.15,2013-04-03 10:16:00,
2013-04-03 06:21:00,29.2,19.2,30.13,SW,227,4.0,6.0,66,0.00,,,0.00,Wunderground v.1.15,2013-04-03 10:21:00,
2013-04-03 06:27:00,29.1,19.8,30.13,West,280,7.0,8.0,68,0.00,,,0.00,Wunderground v.1.15,2013-04-03 10:27:00,
2013-04-03 06:32:00,28.9,20.0,30.14,SW,220,3.0,9.0,69,0.00,,,0.00,Wunderground v.1.15,2013-04-03 10:32:00,
2013-04-03 06:37:00,28.8,20.2,30.14,West,272,3.0,9.0,70,0.00,,,0.00,Wunderground v.1.15,2013-04-03 10:37:00,
2013-04-03 06:42:00,28.7,19.8,30.14,SW,235,5.0,13.0,69,0.00,,,0.00,Wunderground v.1.15,2013-04-03 10:42:00,
2013-04-03 06:47:00,28.7,20.5,30.14,NW,309,12.0,13.0,71,0.00,,,0.00,Wunderground v.1.15,2013-04-03 10:47:00,
2013-04-03 06:52:00,28.3,21.4,30.14,West,271,7.0,7.0,75,0.00,,,0.00,Wunderground v.1.15,2013-04-03 10:52:00,
2013-04-03 06:57:00,27.9,21.6,30.14,WNW,293,4.0,11.0,77,0.00,,,0.00,Wunderground v.1.15,2013-04-03 10:57:00,
2013-04-03 07:02:00,27.9,21.6,30.15,SW,232,4.0,6.0,77,0.00,,,0.00,Wunderground v.1.15,2013-04-03 11:02:00,
2013-04-03 07:07:00,28.0,21.4,30.15,West,279,8.0,12.0,76,0.00,,,0.00,Wunderground v.1.15,2013-04-03 11:07:00,
2013-04-03 07:12:00,27.6,22.2,30.15,SW,221,8.0,8.0,80,0.00,,,0.00,Wunderground v.1.15,2013-04-03 11:12:00,
2013-04-03 07:18:00,27.3,22.2,30.16,West,268,7.0,8.0,81,0.00,,,0.00,Wunderground v.1.15,2013-04-03 11:18:00,
2013-04-03 07:22:00,27.4,22.0,30.16,NW,309,3.0,6.0,80,0.00,,,0.00,Wunderground v.1.15,2013-04-03 11:22:00,
2013-04-03 07:27:00,27.3,22.5,30.16,SW,223,4.0,6.0,82,0.00,,,0.00,Wunderground v.1.15,2013-04-03 11:27:00,
2013-04-03 07:32:00,27.3,21.9,30.17,West,272,3.0,9.0,80,0.00,,,0.00,Wunderground v.1.15,2013-04-03 11:32:00,
2013-04-03 07:37:00,27.4,21.7,30.17,WSW,252,5.0,9.0,79,0.00,,,0.00,Wunderground v.1.15,2013-04-03 11:37:00,
2013-04-03 07:43:00,27.4,22.0,30.17,SW,236,3.0,8.0,80,0.00,,,0.00,Wunderground v.1.15,2013-04-03 11:43:00,
2013-04-03 07:48:00,27.4,21.7,30.17,West,271,2.0,9.0,79,0.00,,,0.00,Wunderground v.1.15,2013-04-03 11:48:00,
2013-04-03 07:53:00,27.4,22.0,30.17,NW,319,6.0,7.0,80,0.00,,,0.00,Wunderground v.1.15,2013-04-03 11:53:00,
2013-04-03 07:58:00,27.5,22.1,30.17,WSW,238,4.0,7.0,80,0.00,,,0.00,Wunderground v.1.15,2013-04-03 11:58:00,
2013-04-03 08:03:00,27.7,21.4,30.17,West,263,4.0,13.0,77,0.00,,,0.00,Wunderground v.1.15,2013-04-03 12:03:00,
2013-04-03 08:08:00,27.7,21.4,30.17,West,267,7.0,13.0,77,0.00,,,0.00,Wunderground v.1.15,2013-04-03 12:08:00,
2013-04-03 08:13:00,27.8,21.5,30.17,WSW,255,7.0,7.0,77,0.00,,,0.00,Wunderground v.1.15,2013-04-03 12:13:00,
2013-04-03 08:18:00,27.9,21.6,30.18,WSW,246,4.0,8.0,77,0.00,,,0.00,Wunderground v.1.15,2013-04-03 12:18:00,
2013-04-03 08:23:00,27.8,21.8,30.18,WNW,292,2.0,10.0,78,0.00,,,0.00,Wunderground v.1.15,2013-04-03 12:23:00,
2013-04-03 08:28:00,27.6,22.5,30.18,SW,235,6.0,10.0,81,0.00,,,0.00,Wunderground v.1.15,2013-04-03 12:28:00,
2013-04-03 08:33:00,27.8,21.8,30.18,SW,215,5.0,8.0,78,0.00,,,0.00,Wunderground v.1.15,2013-04-03 12:33:00,
2013-04-03 08:38:00,27.9,21.6,30.18,West,279,5.0,8.0,77,0.00,,,0.00,Wunderground v.1.15,2013-04-03 12:38:00,
2013-04-03 08:43:00,27.9,22.2,30.18,West,281,3.0,7.0,79,0.00,,,0.00,Wunderground v.1.15,2013-04-03 12:43:00,
2013-04-03 08:48:00,27.8,22.1,30.19,WNW,295,10.0,10.0,79,0.00,,,0.00,Wunderground v.1.15,2013-04-03 12:48:00,
2013-04-03 08:53:00,27.6,22.8,30.19,West,269,5.0,8.0,82,0.00,,,0.00,Wunderground v.1.15,2013-04-03 12:53:00,
2013-04-03 08:58:00,27.6,22.8,30.18,West,279,4.0,8.0,82,0.00,,,0.00,Wunderground v.1.15,2013-04-03 12:58:00,
2013-04-03 09:03:00,27.8,22.7,30.19,West,271,7.0,11.0,81,0.00,,,0.00,Wunderground v.1.15,2013-04-03 13:03:00,
2013-04-03 09:08:00,27.8,22.7,30.19,NW,306,4.0,11.0,81,0.00,,,0.00,Wunderground v.1.15,2013-04-03 13:08:00,
2013-04-03 09:13:00,27.7,23.2,30.19,WSW,256,3.0,7.0,83,0.00,,,0.00,Wunderground v.1.15,2013-04-03 13:13:00,
2013-04-03 09:18:00,27.8,23.0,30.18,West,261,7.0,10.0,82,0.00,,,0.00,Wunderground v.1.15,2013-04-03 13:18:00,
2013-04-03 09:23:00,28.1,23.3,30.18,WNW,302,3.0,7.0,82,0.00,,,0.00,Wunderground v.1.15,2013-04-03 13:23:00,
2013-04-03 09:28:00,28.3,22.3,30.19,West,261,6.0,9.0,78,0.00,,,0.00,Wunderground v.1.15,2013-04-03 13:28:00,
2013-04-03 09:33:00,28.5,21.9,30.18,WNW,291,3.0,10.0,76,0.00,,,0.00,Wunderground v.1.15,2013-04-03 13:33:00,
2013-04-03 09:38:00,28.7,22.4,30.19,West,277,5.0,10.0,77,0.00,,,0.00,Wunderground v.1.15,2013-04-03 13:38:00,
2013-04-03 09:43:00,28.6,22.3,30.19,WNW,288,8.0,8.0,77,0.00,,,0.00,Wunderground v.1.15,2013-04-03 13:43:00,
2013-04-03 09:48:00,28.6,22.6,30.19,West,266,5.0,10.0,78,0.00,,,0.00,Wunderground v.1.15,2013-04-03 13:48:00,
2013-04-03 09:53:00,28.6,23.2,30.19,West,277,3.0,6.0,80,0.00,,,0.00,Wunderground v.1.15,2013-04-03 13:53:00,
2013-04-03 09:58:00,28.7,23.0,30.19,West,269,3.0,9.0,79,0.00,,,0.00,Wunderground v.1.15,2013-04-03 13:58:00,
2013-04-03 10:03:00,28.9,23.2,30.19,West,273,4.0,11.0,79,0.00,,,0.00,Wunderground v.1.15,2013-04-03 14:03:00,
2013-04-03 10:08:00,28.8,23.1,30.19,West,279,4.0,11.0,79,0.00,,,0.00,Wunderground v.1.15,2013-04-03 14:08:00,
2013-04-03 10:13:00,28.8,23.7,30.20,WNW,290,6.0,7.0,81,0.00,,,0.00,Wunderground v.1.15,2013-04-03 14:13:00,
2013-04-03 10:18:00,28.8,23.7,30.19,WSW,244,7.0,10.0,81,0.00,,,0.00,Wunderground v.1.15,2013-04-03 14:18:00,
2013-04-03 10:23:00,29.0,23.9,30.20,WNW,284,6.0,9.0,81,0.00,,,0.00,Wunderground v.1.15,2013-04-03 14:23:00,
2013-04-03 10:28:00,29.3,23.9,30.20,WNW,284,4.0,12.0,80,0.00,,,0.00,Wunderground v.1.15,2013-04-03 14:28:00,
2013-04-03 10:33:00,29.5,23.5,30.20,SW,229,5.0,13.0,78,0.00,,,0.00,Wunderground v.1.15,2013-04-03 14:33:00,
2013-04-03 10:38:00,29.7,23.7,30.20,WNW,287,5.0,13.0,78,0.00,,,0.00,Wunderground v.1.15,2013-04-03 14:38:00,
2013-04-03 10:43:00,29.5,23.8,30.20,West,265,5.0,9.0,79,0.00,,,0.00,Wunderground v.1.15,2013-04-03 14:43:00,
2013-04-03 10:48:00,29.0,24.2,30.21,NW,314,4.0,12.0,82,0.00,,,0.00,Wunderground v.1.15,2013-04-03 14:48:00,
2013-04-03 10:53:00,28.8,24.6,30.21,WSW,252,4.0,12.0,84,0.00,,,0.00,Wunderground v.1.15,2013-04-03 14:53:00,
2013-04-03 10:58:00,29.3,25.1,30.21,NNW,345,4.0,12.0,84,0.00,,,0.00,Wunderground v.1.15,2013-04-03 14:58:00,
2013-04-03 11:03:00,29.9,25.7,30.21,WNW,287,7.0,13.0,84,0.00,,,0.00,Wunderground v.1.15,2013-04-03 15:03:00,
2013-04-03 11:08:00,30.0,25.2,30.21,NW,315,3.0,13.0,82,0.00,,,0.00,Wunderground v.1.15,2013-04-03 15:08:00,
2013-04-03 11:13:00,30.8,25.7,30.21,WNW,296,4.0,12.0,81,0.00,,,0.00,Wunderground v.1.15,2013-04-03 15:13:00,
2013-04-03 11:18:00,30.8,26.2,30.21,West,272,9.0,17.0,83,0.00,,,0.00,Wunderground v.1.15,2013-04-03 15:18:00,
2013-04-03 11:23:00,30.3,24.9,30.21,WNW,294,8.0,12.0,80,0.00,,,0.00,Wunderground v.1.15,2013-04-03 15:23:00,
2013-04-03 11:29:00,30.8,24.7,30.21,NW,318,4.0,12.0,78,0.00,,,0.00,Wunderground v.1.15,2013-04-03 15:29:00,
2013-04-03 11:34:00,31.2,24.8,30.22,WNW,286,6.0,10.0,77,0.00,,,0.00,Wunderground v.1.15,2013-04-03 15:34:00,
2013-04-03 11:39:00,31.4,23.4,30.22,West,275,8.0,15.0,72,0.00,,,0.00,Wunderground v.1.15,2013-04-03 15:39:00,
2013-04-03 11:44:00,30.8,23.2,30.22,WNW,300,6.0,13.0,73,0.00,,,0.00,Wunderground v.1.15,2013-04-03 15:44:00,
2013-04-03 11:49:00,30.5,22.9,30.22,West,281,8.0,14.0,73,0.00,,,0.00,Wunderground v.1.15,2013-04-03 15:49:00,
2013-04-03 11:54:00,30.7,23.4,30.22,WSW,252,3.0,10.0,74,0.00,,,0.00,Wunderground v.1.15,2013-04-03 15:54:00,
2013-04-03 11:59:00,31.5,23.2,30.22,WNW,290,1.0,12.0,71,0.00,,,0.00,Wunderground v.1.15,2013-04-03 15:59:00,
2013-04-03 12:04:00,31.2,22.9,30.23,WNW,298,3.0,19.0,71,0.00,,,0.00,Wunderground v.1.15,2013-04-03 16:04:00,
2013-04-03 12:10:00,30.8,22.8,30.23,West,271,12.0,19.0,72,0.00,,,0.00,Wunderground v.1.15,2013-04-03 16:10:00,
2013-04-03 12:15:00,31.1,23.5,30.23,WNW,292,11.0,17.0,73,0.00,,,0.00,Wunderground v.1.15,2013-04-03 16:15:00,
2013-04-03 12:20:00,30.6,22.0,30.23,West,278,11.0,11.0,70,0.00,,,0.00,Wunderground v.1.15,2013-04-03 16:20:00,
2013-04-03 12:25:00,30.5,21.9,30.23,West,265,8.0,20.0,70,0.00,,,0.00,Wunderground v.1.15,2013-04-03 16:25:00,
2013-04-03 12:30:00,31.0,22.7,30.23,NE,36,3.0,9.0,71,0.00,,,0.00,Wunderground v.1.15,2013-04-03 16:30:00,
2013-04-03 12:35:00,31.7,23.4,30.23,North,351,8.0,12.0,71,0.00,,,0.00,Wunderground v.1.15,2013-04-03 16:35:00,
2013-04-03 12:40:00,32.5,23.8,30.23,WNW,300,7.0,7.0,70,0.00,,,0.00,Wunderground v.1.15,2013-04-03 16:40:00,
2013-04-03 12:45:00,32.5,22.8,30.24,West,265,10.0,18.0,67,0.00,,,0.00,Wunderground v.1.15,2013-04-03 16:45:00,
2013-04-03 12:50:00,31.6,22.2,30.24,West,278,12.0,14.0,68,0.00,,,0.00,Wunderground v.1.15,2013-04-03 16:50:00,
2013-04-03 12:55:00,31.7,22.3,30.24,NNW,342,11.0,15.0,68,0.00,,,0.00,Wunderground v.1.15,2013-04-03 16:55:00,
2013-04-03 13:00:00,32.3,23.3,30.24,NW,316,4.0,10.0,69,0.00,,,0.00,Wunderground v.1.15,2013-04-03 17:00:00,
2013-04-03 13:05:00,32.6,22.5,30.24,North,5,4.0,21.0,66,0.00,,,0.00,Wunderground v.1.15,2013-04-03 17:05:00,
2013-04-03 13:10:00,32.2,22.1,30.24,North,360,13.0,13.0,66,0.00,,,0.00,Wunderground v.1.15,2013-04-03 17:10:00,
2013-04-03 13:15:00,32.5,22.0,30.23,WNW,291,6.0,15.0,65,0.00,,,0.00,Wunderground v.1.15,2013-04-03 17:15:00,
2013-04-03 13:20:00,33.0,21.4,30.24,West,270,9.0,13.0,62,0.00,,,0.00,Wunderground v.1.15,2013-04-03 17:20:00,
2013-04-03 13:25:00,33.2,20.8,30.24,NNW,344,5.0,18.0,60,0.00,,,0.00,Wunderground v.1.15,2013-04-03 17:25:00,
2013-04-03 13:30:00,32.8,20.8,30.24,West,269,8.0,16.0,61,0.00,,,0.00,Wunderground v.1.15,2013-04-03 17:30:00,
2013-04-03 13:35:00,32.9,20.1,30.24,NW,311,20.0,20.0,59,0.00,,,0.00,Wunderground v.1.15,2013-04-03 17:35:00,
2013-04-03 13:40:00,32.7,20.7,30.24,NNW,348,11.0,15.0,61,0.00,,,0.00,Wunderground v.1.15,2013-04-03 17:40:00,
2013-04-03 13:45:00,33.6,21.2,30.24,NNW,344,8.0,16.0,60,0.00,,,0.00,Wunderground v.1.15,2013-04-03 17:45:00,
2013-04-03 13:50:00,34.0,19.5,30.24,NNW,336,16.0,16.0,55,0.00,,,0.00,Wunderground v.1.15,2013-04-03 17:50:00,
2013-04-03 13:55:00,34.0,19.5,30.23,WNW,297,6.0,16.0,55,0.00,,,0.00,Wunderground v.1.15,2013-04-03 17:55:00,
2013-04-03 14:00:00,34.7,19.3,30.23,NW,317,5.0,10.0,53,0.00,,,0.00,Wunderground v.1.15,2013-04-03 18:00:00,
2013-04-03 14:05:00,34.1,18.7,30.23,West,277,5.0,24.0,53,0.00,,,0.00,Wunderground v.1.15,2013-04-03 18:05:00,
2013-04-03 14:10:00,33.9,17.2,30.24,WSW,255,14.0,15.0,50,0.00,,,0.00,Wunderground v.1.15,2013-04-03 18:10:00,
2013-04-03 14:15:00,33.6,20.8,30.24,NW,309,12.0,16.0,59,0.00,,,0.00,Wunderground v.1.15,2013-04-03 18:15:00,
2013-04-03 14:20:00,33.8,21.8,30.24,NNE,33,8.0,13.0,61,0.00,,,0.00,Wunderground v.1.15,2013-04-03 18:20:00,
2013-04-03 14:26:00,34.2,21.4,30.24,WNW,294,6.0,19.0,59,0.00,,,0.00,Wunderground v.1.15,2013-04-03 18:26:00,
2013-04-03 14:31:00,33.4,20.6,30.24,West,278,3.0,9.0,59,0.00,,,0.00,Wunderground v.1.15,2013-04-03 18:31:00,
2013-04-03 14:36:00,33.8,19.7,30.24,West,274,15.0,21.0,56,0.00,,,0.00,Wunderground v.1.15,2013-04-03 18:36:00,
2013-04-03 14:42:00,34.0,18.2,30.25,NW,323,11.0,20.0,52,0.00,,,0.00,Wunderground v.1.15,2013-04-03 18:42:00,
2013-04-03 14:47:00,33.7,17.0,30.24,North,5,3.0,20.0,50,0.00,,,0.00,Wunderground v.1.15,2013-04-03 18:47:00,
2013-04-03 14:52:00,33.8,19.7,30.25,WNW,302,7.0,11.0,56,0.00,,,0.00,Wunderground v.1.15,2013-04-03 18:52:00,
2013-04-03 14:57:00,33.9,21.1,30.25,West,277,7.0,22.0,59,0.00,,,0.00,Wunderground v.1.15,2013-04-03 18:57:00,
2013-04-03 15:02:00,34.0,21.2,30.25,NW,319,8.0,17.0,59,0.00,,,0.00,Wunderground v.1.15,2013-04-03 19:02:00,
2013-04-03 15:07:00,33.9,20.7,30.25,NW,319,13.0,18.0,58,0.00,,,0.00,Wunderground v.1.15,2013-04-03 19:07:00,
2013-04-03 15:12:00,33.7,20.5,30.25,West,273,3.0,20.0,58,0.00,,,0.00,Wunderground v.1.15,2013-04-03 19:12:00,
2013-04-03 15:17:00,34.4,21.1,30.25,West,259,9.0,20.0,58,0.00,,,0.00,Wunderground v.1.15,2013-04-03 19:17:00,
2013-04-03 15:22:00,34.4,22.3,30.25,NW,313,16.0,16.0,61,0.00,,,0.00,Wunderground v.1.15,2013-04-03 19:22:00,
2013-04-03 15:27:00,34.8,20.7,30.25,NNW,331,3.0,16.0,56,0.00,,,0.00,Wunderground v.1.15,2013-04-03 19:27:00,
2013-04-03 15:32:00,34.7,21.4,30.25,WSW,240,5.0,11.0,58,0.00,,,0.00,Wunderground v.1.15,2013-04-03 19:32:00,
2013-04-03 15:37:00,34.2,20.5,30.25,North,5,8.0,16.0,57,0.00,,,0.00,Wunderground v.1.15,2013-04-03 19:37:00,
2013-04-03 15:42:00,34.5,21.2,30.25,WNW,290,11.0,11.0,58,0.00,,,0.00,Wunderground v.1.15,2013-04-03 19:42:00,
2013-04-03 15:47:00,35.0,20.4,30.24,West,271,7.0,19.0,55,0.00,,,0.00,Wunderground v.1.15,2013-04-03 19:47:00,
2013-04-03 15:52:00,35.2,19.8,30.24,WNW,300,7.0,19.0,53,0.00,,,0.00,Wunderground v.1.15,2013-04-03 19:52:00,
2013-04-03 15:57:00,35.6,19.7,30.24,West,275,6.0,19.0,52,0.00,,,0.00,Wunderground v.1.15,2013-04-03 19:57:00,
2013-04-03 16:02:00,36.1,18.8,30.24,WNW,294,3.0,12.0,49,0.00,,,0.00,Wunderground v.1.15,2013-04-03 20:02:00,
2013-04-03 16:07:00,36.0,17.2,30.25,WNW,288,18.0,18.0,46,0.00,,,0.00,Wunderground v.1.15,2013-04-03 20:07:00,
2013-04-03 16:12:00,36.1,15.7,30.24,NW,312,5.0,18.0,43,0.00,,,0.00,Wunderground v.1.15,2013-04-03 20:12:00,
2013-04-03 16:17:00,36.0,15.6,30.25,West,262,8.0,22.0,43,0.00,,,0.00,Wunderground v.1.15,2013-04-03 20:17:00,
2013-04-03 16:22:00,36.5,18.2,30.25,West,278,5.0,10.0,47,0.00,,,0.00,Wunderground v.1.15,2013-04-03 20:22:00,
2013-04-03 16:27:00,37.0,20.1,30.25,WNW,298,11.0,15.0,50,0.00,,,0.00,Wunderground v.1.15,2013-04-03 20:27:00,
2013-04-03 16:32:00,35.9,20.4,30.25,NNE,17,4.0,23.0,53,0.00,,,0.00,Wunderground v.1.15,2013-04-03 20:32:00,
2013-04-03 16:37:00,36.0,20.5,30.25,NNE,12,8.0,23.0,53,0.00,,,0.00,Wunderground v.1.15,2013-04-03 20:37:00,
2013-04-03 16:42:00,36.2,20.7,30.25,WSW,246,10.0,12.0,53,0.00,,,0.00,Wunderground v.1.15,2013-04-03 20:42:00,
2013-04-03 16:47:00,36.1,18.3,30.25,NW,323,7.0,17.0,48,0.00,,,0.00,Wunderground v.1.15,2013-04-03 20:47:00,
2013-04-03 16:52:00,36.2,18.9,30.25,WNW,298,5.0,12.0,49,0.00,,,0.00,Wunderground v.1.15,2013-04-03 20:52:00,
2013-04-03 16:57:00,36.2,16.9,30.25,West,279,13.0,20.0,45,0.00,,,0.00,Wunderground v.1.15,2013-04-03 20:57:00,
2013-04-03 17:02:00,35.8,17.5,30.26,West,275,7.0,17.0,47,0.00,,,0.00,Wunderground v.1.15,2013-04-03 21:02:00,
2013-04-03 17:07:00,35.9,16.6,30.25,North,355,4.0,17.0,45,0.00,,,0.00,Wunderground v.1.15,2013-04-03 21:07:00,
2013-04-03 17:12:00,36.1,17.8,30.25,WNW,290,6.0,12.0,47,0.00,,,0.00,Wunderground v.1.15,2013-04-03 21:12:00,
2013-04-03 17:17:00,36.0,18.2,30.25,NNW,333,6.0,12.0,48,0.00,,,0.00,Wunderground v.1.15,2013-04-03 21:17:00,
2013-04-03 17:22:00,35.9,17.6,30.25,NW,325,13.0,18.0,47,0.00,,,0.00,Wunderground v.1.15,2013-04-03 21:22:00,
2013-04-03 17:27:00,35.8,17.0,30.25,WNW,295,5.0,18.0,46,0.00,,,0.00,Wunderground v.1.15,2013-04-03 21:27:00,
2013-04-03 17:32:00,36.1,17.3,30.26,WSW,258,6.0,14.0,46,0.00,,,0.00,Wunderground v.1.15,2013-04-03 21:32:00,
2013-04-03 17:37:00,35.8,17.0,30.25,NNW,348,10.0,22.0,46,0.00,,,0.00,Wunderground v.1.15,2013-04-03 21:37:00,
2013-04-03 17:42:00,35.9,17.1,30.25,WNW,292,12.0,14.0,46,0.00,,,0.00,Wunderground v.1.15,2013-04-03 21:42:00,
2013-04-03 17:47:00,36.1,16.8,30.26,NW,307,9.0,14.0,45,0.00,,,0.00,Wunderground v.1.15,2013-04-03 21:47:00,
2013-04-03 17:52:00,35.9,16.6,30.26,WNW,284,6.0,11.0,45,0.00,,,0.00,Wunderground v.1.15,2013-04-03 21:52:00,
2013-04-03 17:57:00,35.9,16.6,30.26,WSW,245,6.0,17.0,45,0.00,,,0.00,Wunderground v.1.15,2013-04-03 21:57:00,
2013-04-03 18:02:00,36.0,16.7,30.26,West,277,8.0,17.0,45,0.00,,,0.00,Wunderground v.1.15,2013-04-03 22:02:00,
2013-04-03 18:07:00,35.8,16.0,30.26,NNE,30,6.0,17.0,44,0.00,,,0.00,Wunderground v.1.15,2013-04-03 22:07:00,
2013-04-03 18:12:00,35.4,15.6,30.26,NW,304,10.0,14.0,44,0.00,,,0.00,Wunderground v.1.15,2013-04-03 22:12:00,
2013-04-03 18:17:00,35.5,15.7,30.27,WNW,283,4.0,14.0,44,0.00,,,0.00,Wunderground v.1.15,2013-04-03 22:17:00,
2013-04-03 18:22:00,35.5,15.7,30.27,West,273,8.0,16.0,44,0.00,,,0.00,Wunderground v.1.15,2013-04-03 22:22:00,
2013-04-03 18:27:00,35.3,15.5,30.27,WNW,286,6.0,19.0,44,0.00,,,0.00,Wunderground v.1.15,2013-04-03 22:27:00,
2013-04-03 18:32:00,35.3,15.5,30.27,NW,323,15.0,15.0,44,0.00,,,0.00,Wunderground v.1.15,2013-04-03 22:32:00,
2013-04-03 18:37:00,35.3,16.0,30.27,WNW,292,2.0,19.0,45,0.00,,,0.00,Wunderground v.1.15,2013-04-03 22:37:00,
2013-04-03 18:43:00,35.3,16.6,30.28,West,262,7.0,14.0,46,0.00,,,0.00,Wunderground v.1.15,2013-04-03 22:43:00,
2013-04-03 18:48:00,35.2,17.4,30.28,WNW,297,9.0,14.0,48,0.00,,,0.00,Wunderground v.1.15,2013-04-03 22:48:00,
2013-04-03 18:53:00,35.1,15.9,30.28,NNW,344,3.0,13.0,45,0.00,,,0.00,Wunderground v.1.15,2013-04-03 22:53:00,
2013-04-03 18:58:00,34.9,15.2,30.28,NW,307,3.0,14.0,44,0.00,,,0.00,Wunderground v.1.15,2013-04-03 22:58:00,
2013-04-03 19:03:00,34.8,16.1,30.28,WNW,296,11.0,11.0,46,0.00,,,0.00,Wunderground v.1.15,2013-04-03 23:03:00,
2013-04-03 19:08:00,34.7,15.5,30.28,WNW,294,6.0,13.0,45,0.00,,,0.00,Wunderground v.1.15,2013-04-03 23:08:00,
2013-04-03 19:13:00,34.7,15.5,30.29,SW,225,4.0,10.0,45,0.00,,,0.00,Wunderground v.1.15,2013-04-03 23:13:00,
2013-04-03 19:18:00,34.6,15.9,30.29,NNW,333,6.0,13.0,46,0.00,,,0.00,Wunderground v.1.15,2013-04-03 23:18:00,
2013-04-03 19:23:00,34.5,15.8,30.29,WSW,243,6.0,13.0,46,0.00,,,0.00,Wunderground v.1.15,2013-04-03 23:23:00,
2013-04-03 19:28:00,34.4,16.2,30.29,West,277,1.0,13.0,47,0.00,,,0.00,Wunderground v.1.15,2013-04-03 23:28:00,
2013-04-03 19:33:00,34.3,16.6,30.29,WNW,292,7.0,9.0,48,0.00,,,0.00,Wunderground v.1.15,2013-04-03 23:33:00,
2013-04-03 19:38:00,34.2,16.5,30.29,West,270,3.0,13.0,48,0.00,,,0.00,Wunderground v.1.15,2013-04-03 23:38:00,
2013-04-03 19:43:00,34.0,16.8,30.30,West,271,6.0,9.0,49,0.00,,,0.00,Wunderground v.1.15,2013-04-03 23:43:00,
2013-04-03 19:48:00,33.9,16.7,30.30,WNW,296,5.0,10.0,49,0.00,,,0.00,Wunderground v.1.15,2013-04-03 23:48:00,
2013-04-03 19:53:00,33.9,16.3,30.31,WNW,288,4.0,10.0,48,0.00,,,0.00,Wunderground v.1.15,2013-04-03 23:53:00,
2013-04-03 19:58:00,33.8,16.6,30.31,NW,305,5.0,10.0,49,0.00,,,0.00,Wunderground v.1.15,2013-04-03 23:58:00,
2013-04-03 20:03:00,33.7,16.1,30.31,WSW,252,4.0,10.0,48,0.00,,,0.00,Wunderground v.1.15,2013-04-04 00:03:00,
2013-04-03 20:08:00,33.6,16.0,30.31,West,267,6.0,10.0,48,0.00,,,0.00,Wunderground v.1.15,2013-04-04 00:08:00,
2013-04-03 20:13:00,33.5,15.9,30.32,West,261,8.0,9.0,48,0.00,,,0.00,Wunderground v.1.15,2013-04-04 00:13:00,
2013-04-03 20:18:00,33.5,15.9,30.32,West,259,5.0,9.0,48,0.00,,,0.00,Wunderground v.1.15,2013-04-04 00:18:00,
2013-04-03 20:23:00,33.4,16.3,30.32,West,274,3.0,10.0,49,0.00,,,0.00,Wunderground v.1.15,2013-04-04 00:23:00,
2013-04-03 20:28:00,33.3,16.2,30.32,West,277,5.0,10.0,49,0.00,,,0.00,Wunderground v.1.15,2013-04-04 00:28:00,
2013-04-03 20:33:00,33.2,16.1,30.33,NW,311,4.0,11.0,49,0.00,,,0.00,Wunderground v.1.15,2013-04-04 00:33:00,
2013-04-03 20:38:00,33.3,16.2,30.33,West,270,7.0,13.0,49,0.00,,,0.00,Wunderground v.1.15,2013-04-04 00:38:00,
2013-04-03 20:43:00,33.2,16.5,30.33,WSW,256,7.0,9.0,50,0.00,,,0.00,Wunderground v.1.15,2013-04-04 00:43:00,
2013-04-03 20:48:00,33.1,16.5,30.33,West,259,3.0,11.0,50,0.00,,,0.00,Wunderground v.1.15,2013-04-04 00:48:00,
2013-04-03 20:53:00,33.0,16.8,30.33,West,275,9.0,9.0,51,0.00,,,0.00,Wunderground v.1.15,2013-04-04 00:53:00,
2013-04-03 20:58:00,33.0,16.8,30.33,West,271,4.0,11.0,51,0.00,,,0.00,Wunderground v.1.15,2013-04-04 00:58:00,
2013-04-03 21:03:00,32.8,16.6,30.34,WSW,254,2.0,8.0,51,0.00,,,0.00,Wunderground v.1.15,2013-04-04 01:03:00,
2013-04-03 21:08:00,32.8,16.6,30.34,WSW,257,6.0,9.0,51,0.00,,,0.00,Wunderground v.1.15,2013-04-04 01:08:00,
2013-04-03 21:13:00,32.8,16.6,30.34,WSW,254,4.0,11.0,51,0.00,,,0.00,Wunderground v.1.15,2013-04-04 01:13:00,
2013-04-03 21:18:00,32.7,16.5,30.34,WNW,290,5.0,11.0,51,0.00,,,0.00,Wunderground v.1.15,2013-04-04 01:18:00,
2013-04-03 21:24:00,32.8,16.6,30.34,West,271,6.0,15.0,51,0.00,,,0.00,Wunderground v.1.15,2013-04-04 01:24:00,
2013-04-03 21:29:00,32.6,16.4,30.35,West,274,6.0,15.0,51,0.00,,,0.00,Wunderground v.1.15,2013-04-04 01:29:00,
2013-04-03 21:34:00,32.7,16.5,30.35,WNW,288,5.0,13.0,51,0.00,,,0.00,Wunderground v.1.15,2013-04-04 01:34:00,
2013-04-03 21:39:00,32.7,16.5,30.35,West,271,7.0,13.0,51,0.00,,,0.00,Wunderground v.1.15,2013-04-04 01:39:00,
2013-04-03 21:44:00,32.8,17.1,30.35,WSW,249,8.0,12.0,52,0.00,,,0.00,Wunderground v.1.15,2013-04-04 01:44:00,
2013-04-03 21:49:00,32.7,17.4,30.35,WSW,253,4.0,12.0,53,0.00,,,0.00,Wunderground v.1.15,2013-04-04 01:49:00,
2013-04-03 21:54:00,32.7,17.0,30.35,WSW,255,5.0,8.0,52,0.00,,,0.00,Wunderground v.1.15,2013-04-04 01:54:00,
2013-04-03 21:59:00,32.6,16.9,30.35,West,275,3.0,14.0,52,0.00,,,0.00,Wunderground v.1.15,2013-04-04 01:59:00,
2013-04-03 22:04:00,32.5,17.2,30.35,WNW,297,4.0,9.0,53,0.00,,,0.00,Wunderground v.1.15,2013-04-04 02:04:00,
2013-04-03 22:09:00,32.5,17.7,30.35,West,261,7.0,9.0,54,0.00,,,0.00,Wunderground v.1.15,2013-04-04 02:09:00,
2013-04-03 22:14:00,32.6,17.8,30.35,WNW,294,6.0,13.0,54,0.00,,,0.00,Wunderground v.1.15,2013-04-04 02:14:00,
2013-04-03 22:20:00,32.6,18.2,30.35,West,269,6.0,13.0,55,0.00,,,0.00,Wunderground v.1.15,2013-04-04 02:20:00,
2013-04-03 22:25:00,32.6,18.2,30.35,WSW,257,4.0,8.0,55,0.00,,,0.00,Wunderground v.1.15,2013-04-04 02:25:00,
2013-04-03 22:30:00,32.5,18.5,30.36,West,259,4.0,8.0,56,0.00,,,0.00,Wunderground v.1.15,2013-04-04 02:30:00,
2013-04-03 22:35:00,32.6,18.2,30.36,WSW,254,3.0,10.0,55,0.00,,,0.00,Wunderground v.1.15,2013-04-04 02:35:00,
2013-04-03 22:40:00,32.5,18.5,30.36,West,267,4.0,5.0,56,0.00,,,0.00,Wunderground v.1.15,2013-04-04 02:40:00,
2013-04-03 22:45:00,32.5,18.5,30.36,West,277,5.0,11.0,56,0.00,,,0.00,Wunderground v.1.15,2013-04-04 02:45:00,
2013-04-03 22:50:00,32.5,18.9,30.35,WSW,245,5.0,5.0,57,0.00,,,0.00,Wunderground v.1.15,2013-04-04 02:50:00,
2013-04-03 22:55:00,32.5,18.5,30.36,WNW,288,6.0,12.0,56,0.00,,,0.00,Wunderground v.1.15,2013-04-04 02:55:00,
2013-04-03 23:00:00,32.5,18.5,30.36,West,275,6.0,8.0,56,0.00,,,0.00,Wunderground v.1.15,2013-04-04 03:00:00,
2013-04-03 23:05:00,32.4,18.8,30.36,WSW,242,6.0,9.0,57,0.00,,,0.00,Wunderground v.1.15,2013-04-04 03:05:00,
2013-04-03 23:10:00,32.3,19.2,30.35,WSW,238,2.0,5.0,58,0.00,,,0.00,Wunderground v.1.15,2013-04-04 03:10:00,
2013-04-03 23:15:00,32.1,19.0,30.35,WSW,255,2.0,12.0,58,0.00,,,0.00,Wunderground v.1.15,2013-04-04 03:15:00,
2013-04-03 23:20:00,32.0,19.3,30.35,West,267,4.0,5.0,59,0.00,,,0.00,Wunderground v.1.15,2013-04-04 03:20:00,
2013-04-03 23:25:00,31.8,19.1,30.35,West,274,6.0,7.0,59,0.00,,,0.00,Wunderground v.1.15,2013-04-04 03:25:00,
2013-04-03 23:30:00,31.7,19.4,30.35,WNW,301,10.0,10.0,60,0.00,,,0.00,Wunderground v.1.15,2013-04-04 03:30:00,
2013-04-03 23:35:00,31.6,19.3,30.35,WSW,247,4.0,10.0,60,0.00,,,0.00,Wunderground v.1.15,2013-04-04 03:35:00,
2013-04-03 23:40:00,31.5,19.6,30.35,WNW,301,8.0,9.0,61,0.00,,,0.00,Wunderground v.1.15,2013-04-04 03:40:00,
2013-04-03 23:46:00,31.4,19.5,30.35,West,272,2.0,9.0,61,0.00,,,0.00,Wunderground v.1.15,2013-04-04 03:46:00,
2013-04-03 23:51:00,31.3,19.8,30.35,WNW,288,9.0,9.0,62,0.00,,,0.00,Wunderground v.1.15,2013-04-04 03:51:00,
2013-04-03 23:56:00,31.2,19.7,30.34,West,264,4.0,9.0,62,0.00,,,0.00,Wunderground v.1.15,2013-04-04 03:56:00,